Location: Newark
(41.6500°N, 71.4833°W)
Time: 23:40:18
(UTC+00:00)

Transit 2A Rocket - Pass Details

Date: 30 January 2020
Orbit: 591 x 911 km, 66.7° (Epoch: 20 February)

Event Time Altitude Azimuth Distance (km) Brightness Sun altitude
Rises 19:23:02 0° 304° (NW) 3,127 8.2 22.0°
Reaches altitude 10° 19:27:48 10° 264° (W) 2,300 8.3 21.5°
Maximum altitude 19:28:32 10° 256° (WSW) 2,294 8.5 21.4°
Drops below altitude 10° 19:29:16 10° 248° (WSW) 2,328 8.7 21.3°
Sets 19:34:21 0° 208° (SSW) 3,351 9.8 20.7°
